GW0571 Weather Reports


Display with metric or nautical units.
time (UTC)temp
F
wind
direction
speed
MPH
gust
MPH
rain 1hr
in
rain 24hr
in
rain mn
in
humidity
%
barometer
mb
20260906220552 70 353 2.0 4.0 0.00 0.00 0.00 59 1017.2
20260906220048 71 330 1.0 3.0 0.00 0.00 0.00 59 1017.2
20260906215547 70 297 0.0 3.0 0.00 0.00 0.00 60 1017.2
20260906215045 69 232 1.0 3.0 0.00 0.00 0.00 61 1017.2
20260906214543 68 307 2.0 3.0 0.00 0.00 0.00 62 1016.8
20260906214039 68 326 2.0 2.0 0.00 0.00 0.00 60 1016.8
20260906213532 70 269 0.0 3.0 0.00 0.00 0.00 59 1016.9
20260906213027 70 307 1.0 3.0 0.00 0.00 0.00 59 1017.2
20260906212520 69 301 0.0 3.0 0.00 0.00 0.00 57 1017.3
20260906212016 69 329 2.0 5.0 0.00 0.00 0.00 60 1017.2
20260906211510 70 313 2.0 7.0 0.00 0.00 0.00 59 1017.2
20260906211006 73 299 0.0 4.0 0.00 0.00 0.00 53 1017.0
20260906210501 73 266 1.0 6.0 0.00 0.00 0.00 55 1017.2
20260906205959 72 336 3.0 6.0 0.00 0.00 0.00 54 1016.9
20260906205450 73 329 3.0 4.0 0.00 0.00 0.00 54 1017.0
20260906204946 72 240 0.0 5.0 0.00 0.00 0.00 58 1016.8
20260906204445 71 340 5.0 8.0 0.00 0.00 0.00 57 1016.7
20260906203944 71 342 5.0 6.0 0.00 0.00 0.00 55 1016.7
20260906203440 70 254 4.0 5.0 0.00 0.00 0.00 60 1016.8
20260906202937 69 334 3.0 5.0 0.00 0.00 0.00 59 1016.8
20260906202436 68 326 0.0 3.0 0.00 0.00 0.00 63 1017.0
20260906201931 69 311 0.0 4.0 0.00 0.00 0.00 60 1017.0
20260906201426 71 337 1.0 5.0 0.00 0.00 0.00 57 1016.9
20260906200921 71 333 3.0 4.0 0.00 0.00 0.00 56 1016.7
20260906200417 69 313 2.0 3.0 0.00 0.00 0.00 60 1016.7
20260906195912 71 320 2.0 7.0 0.00 0.00 0.00 56 1016.7
20260906195408 72 303 2.0 5.0 0.00 0.00 0.00 57 1016.7
20260906194904 72 243 6.0 7.0 0.00 0.00 0.00 55 1016.6
20260906194359 69 8 3.0 5.0 0.00 0.00 0.00 61 1016.6
20260906193854 69 267 1.0 4.0 0.00 0.00 0.00 62 1016.7
20260906193349 70 0 4.0 7.0 0.00 0.00 0.00 56 1016.6
20260906192845 72 359 4.0 11.0 0.00 0.00 0.00 54 1016.8
20260906192339 69 332 3.0 6.0 0.00 0.00 0.00 57 1016.6
20260906191838 71 304 2.0 7.0 0.00 0.00 0.00 57 1016.7
20260906191339 71 333 6.0 9.0 0.00 0.00 0.00 56 1016.7
20260906190833 72 84 2.0 10.0 0.00 0.00 0.00 61 1016.8
20260906190332 72 327 1.0 5.0 0.00 0.00 0.00 54 1016.8
20260906185827 71 310 0.0 5.0 0.00 0.00 0.00 55 1016.7
20260906185326 71 308 2.0 7.0 0.00 0.00 0.00 56 1016.8
20260906184821 71 262 2.0 4.0 0.00 0.00 0.00 56 1016.7
20260906184315 71 339 5.0 6.0 0.00 0.00 0.00 54 1016.7
20260906183811 69 338 2.0 4.0 0.00 0.00 0.00 62 1016.7
20260906183308 72 324 3.0 7.0 0.00 0.00 0.00 57 1016.7
20260906182808 71 346 3.0 7.0 0.00 0.00 0.00 55 1016.8
20260906182306 70 329 3.0 6.0 0.00 0.00 0.00 59 1016.6
20260906181758 70 313 3.0 5.0 0.00 0.00 0.00 63 1016.8
20260906181254 70 337 1.0 6.0 0.00 0.00 0.00 62 1016.9
20260906180754 69 352 2.0 9.0 0.00 0.00 0.00 63 1016.7
20260906180249 71 354 2.0 5.0 0.00 0.00 0.00 64 1016.6
20260906175746 70 338 8.0 8.0 0.00 0.00 0.00 63 1016.8
20260906175243 69 352 3.0 8.0 0.00 0.00 0.00 64 1016.7
20260906174741 69 325 2.0 5.0 0.00 0.00 0.00 64 1016.8
20260906174241 72 307 1.0 4.0 0.00 0.00 0.00 60 1016.7
20260906173736 71 53 1.0 5.0 0.00 0.00 0.00 60 1016.7
20260906173232 70 339 3.0 3.0 0.00 0.00 0.00 62 1016.8
20260906172731 69 318 2.0 7.0 0.00 0.00 0.00 65 1017.0
20260906172226 71 296 4.0 6.0 0.00 0.00 0.00 61 1016.8
20260906171721 71 323 2.0 5.0 0.00 0.00 0.00 58 1016.9
20260906171216 71 18 1.0 7.0 0.00 0.00 0.00 63 1016.9
20260906170712 71 349 3.0 7.0 0.00 0.00 0.00 63 1016.8
20260906170213 69 346 3.0 9.0 0.00 0.00 0.00 65 1016.9
20260906165709 69 347 2.0 5.0 0.00 0.00 0.00 68 1017.2
20260906165204 70 354 2.0 7.0 0.00 0.00 0.00 64 1017.3
20260906164703 71 0 2.0 4.0 0.00 0.00 0.00 66 1017.0
20260906164158 70 316 1.0 5.0 0.00 0.00 0.00 67 1017.2
20260906163654 70 297 2.0 5.0 0.00 0.00 0.00 65 1017.0
20260906163150 72 21 1.0 5.0 0.00 0.00 0.00 63 1017.0
20260906162647 69 11 0.0 3.0 0.00 0.00 0.00 68 1017.2
20260906162146 68 357 3.0 6.0 0.00 0.00 0.00 67 1017.3
20260906161641 69 0 2.0 5.0 0.00 0.00 0.00 70 1017.3
20260906161140 68 5 1.0 8.0 0.00 0.00 0.00 70 1017.0
20260906160639 69 289 3.0 4.0 0.00 0.00 0.00 69 1017.2
20260906160139 70 351 4.0 6.0 0.00 0.00 0.00 68 1017.3
20260906155636 71 23 2.0 3.0 0.00 0.00 0.00 69 1017.3
20260906155132 70 338 3.0 4.0 0.00 0.00 0.00 67 1017.3
20260906154627 68 354 1.0 3.0 0.00 0.00 0.00 73 1017.4
20260906154127 71 326 4.0 6.0 0.00 0.00 0.00 68 1017.3
20260906153625 70 358 2.0 6.0 0.00 0.00 0.00 71 1017.2
20260906153121 68 327 2.0 6.0 0.00 0.00 0.00 75 1017.2
20260906152615 66 337 2.0 3.0 0.00 0.00 0.00 78 1017.2
20260906152109 66 312 1.0 4.0 0.00 0.00 0.00 76 1017.3
20260906151604 66 315 4.0 9.0 0.00 0.00 0.00 75 1017.2
20260906151100 67 300 2.0 7.0 0.00 0.00 0.00 75 1017.2
20260906150555 68 346 2.0 9.0 0.00 0.00 0.00 76 1017.2
20260906150050 66 235 2.0 6.0 0.00 0.00 0.00 76 1017.0
20260906145549 66 240 0.0 4.0 0.00 0.00 0.00 77 1017.3
20260906145043 64 343 2.0 6.0 0.00 0.00 0.00 81 1017.0
20260906144532 65 316 2.0 5.0 0.00 0.00 0.00 79 1016.9
20260906144028 65 257 0.0 4.0 0.00 0.00 0.00 80 1017.2
20260906143522 64 351 1.0 7.0 0.00 0.00 0.00 82 1017.2
20260906143019 65 342 3.0 7.0 0.00 0.00 0.00 80 1017.0
20260906142513 65 76 1.0 6.0 0.00 0.00 0.00 83 1017.0
20260906142009 64 266 2.0 8.0 0.00 0.00 0.00 83 1017.0
20260906141507 63 355 2.0 8.0 0.00 0.00 0.00 84 1017.0
20260906141003 65 327 2.0 10.0 0.00 0.00 0.00 83 1016.8
20260906140457 64 346 4.0 8.0 0.00 0.00 0.00 82 1016.8
20260906135955 65 346 2.0 5.0 0.00 0.00 0.00 85 1017.0
20260906135454 62 335 3.0 7.0 0.00 0.00 0.00 86 1016.9
20260906134949 62 33 2.0 4.0 0.00 0.00 0.00 88 1016.9
20260906134444 62 2 2.0 8.0 0.00 0.00 0.00 87 1017.0
20260906133939 62 334 5.0 8.0 0.02 0.00 0.00 88 1017.0
20260906133435 62 279 0.0 7.0 0.02 0.00 0.00 90 1016.9
20260906132930 62 1 5.0 11.0 0.00 0.00 0.00 89 1016.8
20260906132425 62 348 1.0 6.0 0.00 0.00 0.00 90 1016.9
20260906131921 62 340 2.0 4.0 0.00 0.00 0.00 92 1016.8
20260906131416 61 303 3.0 7.0 0.00 0.00 0.00 91 1016.7
20260906130912 60 335 4.0 6.0 0.00 0.00 0.00 94 1016.8
20260906130411 60 284 1.0 4.0 0.00 0.00 0.00 96 1017.2
20260906125905 59 67 2.0 4.0 0.00 0.00 0.00 96 1016.9
20260906125402 59 347 1.0 6.0 0.00 0.00 0.00 96 1016.8
20260906124857 59 356 2.0 5.0 0.00 0.00 0.00 96 1016.8
20260906124353 59 133 0.0 4.0 0.00 0.00 0.00 96 1016.6
20260906123852 59 336 4.0 4.0 0.00 0.00 0.00 96 1016.6
20260906123347 58 357 3.0 6.0 0.00 0.00 0.00 96 1016.4
20260906122847 58 341 1.0 7.0 0.00 0.00 0.00 96 1016.6
20260906122341 58 344 3.0 6.0 0.00 0.00 0.00 96 1016.5
20260906121838 58 0 5.0 8.0 0.00 0.00 0.00 96 1016.6
20260906121334 58 356 4.0 6.0 0.00 0.00 0.00 96 1016.4
20260906120830 58 357 2.0 3.0 0.00 0.00 0.00 96 1016.4
20260906120326 58 28 2.0 5.0 0.00 0.00 0.00 96 1016.5
20260906115822 58 0 1.0 4.0 0.00 0.00 0.00 96 1016.3
20260906115317 57 356 3.0 5.0 0.00 0.00 0.00 96 1016.4
20260906114816 57 0 0.0 5.0 0.00 0.00 0.00 96 1016.1
20260906114312 58 30 1.0 2.0 0.00 0.00 0.00 96 1016.3
20260906113811 58 355 1.0 4.0 0.00 0.00 0.00 96 1016.2
20260906113306 58 324 2.0 6.0 0.00 0.00 0.00 96 1016.1
20260906112801 58 29 1.0 2.0 0.00 0.00 0.00 96 1016.2
20260906112257 58 29 1.0 3.0 0.00 0.00 0.00 96 1016.1
20260906111756 58 268 1.0 3.0 0.00 0.00 0.00 96 1016.2
20260906111255 58 0 2.0 3.0 0.00 0.00 0.00 96 1016.0
20260906110751 58 10 1.0 3.0 0.00 0.00 0.00 96 1016.0
20260906110247 58 359 0.0 2.0 0.00 0.00 0.00 96 1016.0
20260906105746 58 359 0.0 2.0 0.00 0.00 0.00 96 1016.0
20260906105242 58 347 2.0 3.0 0.00 0.00 0.00 96 1016.0
20260906104737 58 18 0.0 3.0 0.00 0.00 0.00 96 1015.8
20260906104236 58 310 0.0 4.0 0.00 0.00 0.00 96 1015.6
20260906103733 58 330 3.0 3.0 0.00 0.00 0.00 96 1015.7
20260906103228 58 315 1.0 3.0 0.00 0.00 0.00 96 1015.6
20260906102724 58 355 0.0 4.0 0.00 0.00 0.00 96 1015.7
20260906102223 58 339 1.0 2.0 0.00 0.00 0.00 96 1015.6
20260906101718 58 33 0.0 2.0 0.00 0.00 0.00 96 1015.6
20260906101213 58 23 0.0 2.0 0.00 0.00 0.00 96 1015.5
20260906100709 58 19 0.0 1.0 0.00 0.00 0.00 96 1015.4
20260906100209 57 50 0.0 1.0 0.00 0.00 0.00 96 1015.5
20260906095703 57 322 0.0 1.0 0.00 0.00 0.00 96 1015.3
20260906095159 57 317 0.0 4.0 0.00 0.00 0.00 96 1015.3
20260906094657 57 288 0.0 4.0 0.00 0.00 0.00 96 1015.5
20260906094153 57 358 1.0 5.0 0.00 0.00 0.00 96 1015.5
20260906093649 57 1 2.0 2.0 0.00 0.00 0.00 96 1015.0
20260906093144 57 339 0.0 2.0 0.00 0.00 0.00 96 1015.0
20260906092639 56 13 1.0 3.0 0.00 0.00 0.00 96 1015.0
20260906092139 54 348 1.0 2.0 0.00 0.00 0.00 96 1015.0
20260906091635 54 1 1.0 2.0 0.00 0.00 0.00 96 1015.1
20260906091132 54 97 0.0 2.0 0.00 0.00 0.00 96 1015.0
20260906090627 54 140 1.0 1.0 0.00 0.00 0.00 96 1014.9
20260906090127 54 44 0.0 1.0 0.00 0.00 0.00 96 1014.8
20260906085626 53 137 1.0 2.0 0.00 0.00 0.00 96 1014.8
20260906085120 54 38 0.0 1.0 0.00 0.00 0.00 96 1014.7
20260906084615 54 113 0.0 2.0 0.00 0.00 0.00 96 1014.8
20260906084114 54 124 0.0 1.0 0.00 0.00 0.00 96 1014.7
20260906083609 54 13 0.0 1.0 0.00 0.00 0.00 96 1014.6
20260906083109 55 230 0.0 1.0 0.00 0.00 0.00 96 1014.4
20260906082605 55 126 0.0 1.0 0.00 0.00 0.00 96 1014.4
20260906082100 55 134 1.0 2.0 0.00 0.00 0.00 96 1014.3
20260906081556 56 134 1.0 2.0 0.00 0.00 0.00 96 1014.2
20260906081051 56 119 0.0 2.0 0.00 0.00 0.00 96 1014.3
20260906080548 55 113 0.0 1.0 0.00 0.00 0.00 96 1014.4
20260906080043 55 125 0.0 1.0 0.00 0.00 0.00 96 1014.4
20260906075537 55 129 0.0 1.0 0.00 0.00 0.00 96 1014.6
20260906075032 56 104 0.0 2.0 0.00 0.00 0.00 96 1014.2
20260906074527 56 89 0.0 1.0 0.00 0.00 0.00 96 1014.4
20260906074025 56 115 1.0 2.0 0.00 0.00 0.00 96 1014.4
20260906073521 56 114 0.0 2.0 0.00 0.00 0.00 96 1014.4
20260906073017 56 104 1.0 2.0 0.00 0.00 0.00 96 1014.2
20260906072511 56 154 0.0 1.0 0.00 0.00 0.00 96 1014.4
20260906072008 56 129 0.0 2.0 0.00 0.00 0.00 96 1014.4
20260906071503 56 125 2.0 2.0 0.00 0.00 0.00 96 1014.6
20260906070958 56 116 2.0 2.0 0.00 0.00 0.00 96 1014.6
20260906070454 56 100 1.0 2.0 0.00 0.00 0.00 96 1014.6
20260906065949 56 109 1.0 2.0 0.00 0.00 0.00 96 1014.4
20260906065444 56 115 1.0 2.0 0.00 0.00 0.00 96 1014.6
20260906064939 56 121 0.0 2.0 0.00 0.00 0.00 96 1014.6
20260906064436 56 97 1.0 2.0 0.00 0.00 0.00 96 1014.3
20260906063936 56 124 1.0 2.0 0.00 0.00 0.00 96 1014.7
20260906063431 56 127 1.0 3.0 0.00 0.00 0.00 96 1014.8
20260906062926 56 120 2.0 2.0 0.00 0.00 0.00 96 1014.7
20260906062421 55 118 1.0 2.0 0.00 0.00 0.00 96 1014.7
20260906061916 55 129 0.0 1.0 0.00 0.00 0.00 96 1014.8
20260906061412 56 129 0.0 2.0 0.00 0.00 0.00 96 1014.7
20260906060906 56 109 1.0 3.0 0.00 0.00 0.00 96 1014.7
20260906060404 56 139 2.0 3.0 0.00 0.00 0.00 96 1014.6
20260906055859 56 121 2.0 2.0 0.00 0.00 0.00 96 1014.8
20260906055355 56 122 1.0 2.0 0.00 0.00 0.00 96 1014.8
20260906054850 56 105 1.0 2.0 0.00 0.00 0.00 96 1014.8
20260906054345 56 43 0.0 1.0 0.00 0.00 0.00 96 1014.8
20260906053841 56 129 0.0 0.0 0.00 0.00 0.00 96 1014.8
20260906053337 57 142 0.0 1.0 0.00 0.00 0.00 96 1014.7
20260906052832 57 50 0.0 2.0 0.00 0.00 0.00 96 1014.8
20260906052329 57 113 1.0 2.0 0.00 0.00 0.00 96 1014.9
20260906051825 57 103 1.0 2.0 0.00 0.00 0.00 96 1014.8
20260906051324 56 119 0.0 1.0 0.00 0.00 0.00 96 1014.8
20260906050821 57 122 0.0 1.0 0.00 0.00 0.00 96 1014.8
20260906050315 57 114 2.0 3.0 0.00 0.00 0.00 96 1014.9
20260906045814 57 114 2.0 3.0 0.00 0.00 0.00 96 1014.7
20260906045308 57 137 0.0 2.0 0.00 0.00 0.00 96 1014.7
20260906044805 57 117 1.0 1.0 0.00 0.00 0.00 96 1014.7
20260906044259 57 85 0.0 2.0 0.00 0.00 0.00 96 1014.8
20260906043755 57 6 1.0 2.0 0.00 0.00 0.00 96 1014.8
20260906043251 57 19 0.0 2.0 0.00 0.00 0.00 96 1014.6
20260906042751 57 6 0.0 1.0 0.00 0.00 0.00 96 1014.8
20260906042250 57 113 0.0 2.0 0.00 0.00 0.00 96 1014.9
20260906041745 57 118 2.0 2.0 0.00 0.00 0.00 96 1014.7
20260906041241 57 103 0.0 1.0 0.00 0.00 0.00 96 1014.8
20260906040736 58 89 0.0 2.0 0.00 0.00 0.00 96 1014.6
20260906040231 58 22 0.0 1.0 0.00 0.00 0.00 96 1014.8
20260906035726 58 36 0.0 3.0 0.00 0.00 0.00 96 1014.8
20260906035217 58 33 1.0 2.0 0.00 0.00 0.00 96 1014.7
20260906034716 58 19 2.0 3.0 0.00 0.00 0.00 96 1014.6
20260906034211 58 8 1.0 3.0 0.00 0.00 0.00 96 1014.6
20260906033707 58 1 2.0 3.0 0.00 0.00 0.00 96 1014.6
20260906033206 58 7 1.0 3.0 0.00 0.00 0.00 96 1014.6
20260906032704 58 347 0.0 2.0 0.00 0.00 0.00 96 1014.4
20260906032158 58 10 2.0 2.0 0.00 0.00 0.00 96 1014.4
20260906031653 58 3 1.0 2.0 0.00 0.00 0.00 96 1014.6
20260906031148 57 7 2.0 2.0 0.00 0.00 0.00 96 1014.4
20260906030648 58 31 1.0 2.0 0.00 0.00 0.00 96 1014.4
20260906030144 58 28 1.0 2.0 0.00 0.00 0.00 96 1014.4
20260906025643 58 35 0.0 1.0 0.00 0.00 0.00 96 1014.2
20260906025142 58 50 0.0 1.0 0.00 0.00 0.00 96 1014.6
20260906024636 58 44 0.0 1.0 0.00 0.00 0.00 96 1014.4
20260906024131 58 113 0.0 1.0 0.00 0.00 0.00 96 1014.6
20260906023627 58 113 0.0 1.0 0.00 0.00 0.00 96 1014.2
20260906023127 58 66 0.0 1.0 0.00 0.00 0.00 96 1014.6
20260906022622 58 124 0.0 0.0 0.00 0.00 0.00 96 1014.2
20260906022118 58 124 0.0 1.0 0.00 0.00 0.00 96 1014.4
20260906021613 59 99 0.0 2.0 0.00 0.00 0.00 96 1014.6
20260906021112 59 104 0.0 2.0 0.00 0.00 0.00 96 1014.4
20260906020612 59 50 0.0 2.0 0.00 0.00 0.00 96 1014.4
20260906020106 59 9 2.0 2.0 0.00 0.00 0.00 96 1014.3
20260906015605 59 9 2.0 2.0 0.00 0.00 0.00 96 1014.6
20260906015059 60 15 1.0 2.0 0.00 0.00 0.00 96 1014.1
20260906014554 60 89 0.0 2.0 0.00 0.00 0.00 96 1014.3
20260906014051 60 113 0.0 1.0 0.00 0.00 0.00 95 1014.1
20260906013545 60 32 0.0 1.0 0.00 0.00 0.00 95 1014.0
20260906013041 60 29 0.0 0.0 0.00 0.00 0.00 94 1013.8
20260906012536 61 9 0.0 2.0 0.00 0.00 0.00 94 1013.9
20260906012035 61 4 1.0 2.0 0.00 0.00 0.00 93 1014.0
20260906011532 61 6 0.0 1.0 0.00 0.00 0.00 93 1013.9
20260906011031 61 5 1.0 2.0 0.00 0.00 0.00 93 1013.9
20260906010527 61 13 0.0 2.0 0.00 0.00 0.00 94 1014.0
20260906010023 61 31 1.0 2.0 0.00 0.00 0.00 94 1014.0
20260906005522 61 0 0.0 2.0 0.00 0.00 0.00 95 1014.1
20260906005021 60 37 0.0 1.0 0.00 0.00 0.00 95 1014.0
20260906004521 60 44 0.0 1.0 0.00 0.00 0.00 95 1013.9
20260906004016 60 43 1.0 2.0 0.00 0.00 0.00 95 1013.8
20260906003510 60 71 1.0 4.0 0.00 0.00 0.00 95 1013.5
20260906003007 61 34 1.0 2.0 0.00 0.00 0.00 95 1013.6
20260906002501 61 32 0.0 2.0 0.00 0.00 0.00 94 1013.7
20260906001956 61 6 0.0 1.0 0.00 0.00 0.00 94 1013.6
20260906001451 62 22 0.0 1.0 0.00 0.00 0.00 93 1013.6
20260906000940 62 6 0.0 1.0 0.00 0.00 0.00 92 1013.7
20260906000435 62 334 0.0 1.0 0.00 0.00 0.00 91 1013.6
20260905235925 63 352 0.0 0.0 0.00 0.00 0.00 90 1013.6
20260905235424 63 335 0.0 1.0 0.00 0.00 0.00 89 1013.6
20260905234919 63 325 0.0 2.0 0.00 0.00 0.00 89 1013.5
20260905234415 64 344 2.0 2.0 0.00 0.00 0.00 89 1013.7
20260905233909 64 328 0.0 1.0 0.00 0.00 0.00 88 1013.6
20260905233405 64 6 0.0 1.0 0.00 0.00 0.00 87 1013.6
20260905232903 64 269 0.0 2.0 0.00 0.00 0.00 87 1013.7
20260905232400 65 309 0.0 1.0 0.00 0.00 0.00 87 1013.7
20260905231855 65 13 0.0 0.0 0.00 0.00 0.00 86 1013.6
20260905231350 65 11 0.0 2.0 0.00 0.00 0.00 84 1013.6
20260905230847 66 308 1.0 3.0 0.00 0.00 0.00 83 1013.4
20260905230344 67 315 0.0 2.0 0.00 0.00 0.00 82 1013.6
20260905225844 68 308 0.0 2.0 0.00 0.00 0.00 80 1013.5
20260905225339 67 335 2.0 4.0 0.00 0.00 0.00 80 1013.6
20260905224834 67 338 1.0 3.0 0.00 0.00 0.00 80 1013.5
20260905224330 67 317 2.0 6.0 0.00 0.00 0.00 80 1013.5
20260905223824 68 32 3.0 3.0 0.00 0.00 0.00 79 1013.4
20260905223322 68 329 1.0 3.0 0.00 0.00 0.00 78 1013.4
20260905222817 68 335 2.0 4.0 0.00 0.00 0.00 78 1013.5
20260905222316 68 315 2.0 2.0 0.00 0.00 0.00 78 1013.3
20260905221812 69 324 3.0 3.0 0.00 0.00 0.00 78 1013.3
20260905221309 69 332 0.0 3.0 0.00 0.00 0.00 76 1013.3